DW3248 Amsterdam NL current weather conditions

sailwx.info

Wind from 035

Air temperature 15.6° C
Dewpoint 14.1° C

Last reported at 2018-Jul-20 01:56 UTC.
Time now 2018-Jul-20 02:49 UTC

Location: N 52°18' E 004°58'.
View on Google Maps.

See reports from other nearby stations

  
Tides and Currents Weather Stations Pressure Air Temp Water Temp Dewpoint Dewpoint Depression Visibility Wind Speed Wind Dir Waves Ship Positions
date/time (UTC)wind fromknots sea level pressurealtimeterstation pressurevisibilityair tempwater tempwave heightnotes
2018-Jul-20 01:56 035 15.6
2018-Jul-20 01:51 013 15.6
2018-Jul-20 01:46 012 15.6
2018-Jul-20 01:41 005 15.6
2018-Jul-20 01:36 342 15.6
2018-Jul-20 01:31 332 16.1
2018-Jul-20 01:26 320 15.6
2018-Jul-20 01:21 316 16.1
2018-Jul-20 01:16 326 16.1
2018-Jul-20 01:11 338 16.1
2018-Jul-20 01:06 343 16.1
2018-Jul-20 01:01 344 16.1
2018-Jul-20 00:56 359 16.1
2018-Jul-20 00:51 024 16.7
2018-Jul-20 00:46 061 16.7
2018-Jul-20 00:41 063 16.7
2018-Jul-20 00:36 010 16.7
2018-Jul-20 00:31 346 0 gusting 0 16.7
2018-Jul-20 00:26 343 0 gusting 2 17.2
2018-Jul-20 00:21 350 0 gusting 1 17.2
2018-Jul-20 00:16 003 17.2
2018-Jul-20 00:11 358 17.2
2018-Jul-20 00:06 345 0 gusting 0 17.2
2018-Jul-20 00:01 338 0 gusting 1 17.2
2018-Jul-19 23:56 353 0 gusting 2 17.2
2018-Jul-19 23:51 006 0 gusting 1 17.2
2018-Jul-19 23:46 009 0 gusting 1 17.8
2018-Jul-19 23:41 348 0 gusting 1 17.8
2018-Jul-19 23:36 343 0 gusting 2 17.8
2018-Jul-19 23:31 351 0 gusting 2 17.8
2018-Jul-19 23:26 17.8
2018-Jul-19 23:21 007 1 gusting 1 17.8
2018-Jul-19 23:16 348 1 gusting 2 17.8
2018-Jul-19 23:11 347 0 gusting 2 17.8
2018-Jul-19 23:06 342 0 gusting 2 17.8
2018-Jul-19 23:01 330 1 gusting 2 17.8
2018-Jul-19 22:56 344 1 gusting 3 17.8
2018-Jul-19 22:51 359 1 gusting 3 17.8
2018-Jul-19 22:46 354 1 gusting 3 17.8
2018-Jul-19 22:41 339 1 gusting 3 17.8
2018-Jul-19 22:36 335 1 gusting 2 17.8
2018-Jul-19 22:31 337 0 gusting 1 17.8
2018-Jul-19 22:26 343 0 gusting 1 18.3
2018-Jul-19 22:21 344 1 gusting 2 18.3
2018-Jul-19 22:16 346 1 gusting 3 18.3
2018-Jul-19 22:11 353 2 gusting 4 18.3
2018-Jul-19 22:06 354 1 gusting 6 18.3
2018-Jul-19 22:01 346 1 gusting 3 18.3
2018-Jul-19 21:56 351 2 gusting 5 18.3
2018-Jul-19 21:51 009 2 gusting 4 18.3
2018-Jul-19 21:46 352 1 gusting 4 18.3
2018-Jul-19 21:41 346 1 gusting 3 18.3
2018-Jul-19 21:36 355 1 gusting 4 18.3
2018-Jul-19 21:31 355 1 gusting 4 18.3
2018-Jul-19 21:26 359 1 gusting 3 18.9
2018-Jul-19 21:21 346 2 gusting 2 18.9
2018-Jul-19 21:16 336 2 gusting 4 18.9
2018-Jul-19 21:11 344 2 gusting 4 18.9
2018-Jul-19 21:06 356 1 gusting 2 18.9
2018-Jul-19 21:01 353 2 gusting 4 18.9
2018-Jul-19 20:56 340 2 gusting 4 18.9
2018-Jul-19 20:51 347 2 gusting 4 18.9
2018-Jul-19 20:46 351 1 gusting 4 18.9
2018-Jul-19 20:41 338 1 gusting 4 19.4
2018-Jul-19 20:36 337 1 gusting 3 19.4
2018-Jul-19 20:31 344 1 gusting 2 19.4
2018-Jul-19 20:26 343 2 gusting 2 19.4
2018-Jul-19 20:21 353 2 gusting 5 19.4
2018-Jul-19 20:16 350 2 gusting 4 19.4
2018-Jul-19 20:11 353 2 gusting 5 19.4
2018-Jul-19 20:06 010 3 gusting 5 19.4
2018-Jul-19 20:01 002 3 gusting 10 20.0
2018-Jul-19 19:56 355 2 gusting 4 20.0
2018-Jul-19 19:51 002 3 gusting 4 20.0
2018-Jul-19 19:46 355 3 gusting 6 20.0
2018-Jul-19 19:41 007 3 gusting 6 20.0
2018-Jul-19 19:36 017 3 gusting 6 20.0
2018-Jul-19 19:31 005 3 gusting 6 20.6
2018-Jul-19 19:26 20.6
2018-Jul-19 19:21 357 3 gusting 6 20.6
2018-Jul-19 19:16 20.6
2018-Jul-19 19:11 011 5 gusting 7 20.6
2018-Jul-19 19:06 001 5 gusting 9 21.1
2018-Jul-19 19:01 002 5 gusting 6 21.1
2018-Jul-19 18:56 014 5 gusting 7 21.1
2018-Jul-19 18:51 011 4 gusting 8 21.1
2018-Jul-19 18:46 002 4 gusting 9 21.1
2018-Jul-19 18:41 356 4 gusting 9 21.7
2018-Jul-19 18:36 011 5 gusting 7 21.7
2018-Jul-19 18:31 009 5 gusting 8 21.7
2018-Jul-19 18:26 001 5 gusting 9 21.7
2018-Jul-19 18:21 356 4 gusting 9 22.2
2018-Jul-19 18:16 336 4 gusting 9 22.2
2018-Jul-19 18:11 330 4 gusting 6 22.2
2018-Jul-19 18:06 348 4 gusting 8 22.8
2018-Jul-19 18:01 002 4 gusting 8 22.8
2018-Jul-19 17:56 354 5 gusting 10 22.8
2018-Jul-19 17:51 352 4 gusting 9 22.8
2018-Jul-19 17:46 001 4 gusting 8 23.3
2018-Jul-19 17:41 014 5 gusting 6 23.3
2018-Jul-19 17:36 010 5 gusting 8 23.3
2018-Jul-19 17:31 014 4 gusting 9 23.3
2018-Jul-19 17:26 010 4 gusting 7 23.3
2018-Jul-19 17:21 003 5 gusting 6 23.3
2018-Jul-19 17:16 008 4 gusting 9 23.3
2018-Jul-19 17:11 352 4 gusting 7 23.3
2018-Jul-19 17:06 342 4 gusting 8 23.3
2018-Jul-19 17:01 352 4 gusting 7 23.3
2018-Jul-19 16:56 004 4 gusting 12 23.3
2018-Jul-19 16:51 347 3 gusting 8 23.3
2018-Jul-19 16:46 322 3 gusting 6 23.3
2018-Jul-19 16:41 334 4 gusting 7 23.3
2018-Jul-19 16:36 346 4 gusting 9 23.3
2018-Jul-19 16:31 344 4 gusting 12 23.3
2018-Jul-19 16:26 342 5 gusting 6 23.3
2018-Jul-19 16:21 347 5 gusting 8 23.3
2018-Jul-19 16:16 344 5 gusting 7 23.3
2018-Jul-19 16:11 330 4 gusting 8 23.3
2018-Jul-19 16:06 326 4 gusting 9 23.3
2018-Jul-19 16:01 326 4 gusting 6 23.3
2018-Jul-19 15:56 336 4 gusting 8 23.9
2018-Jul-19 15:51 333 4 gusting 7 23.9
2018-Jul-19 15:46 315 5 gusting 9 23.9
2018-Jul-19 15:41 317 5 gusting 8 23.9
2018-Jul-19 15:36 330 5 gusting 6 23.9
2018-Jul-19 15:31 338 5 gusting 10 24.4
2018-Jul-19 15:26 338 4 gusting 8 24.4
2018-Jul-19 15:21 320 4 gusting 8 25.0
2018-Jul-19 15:16 314 3 gusting 8 25.0
2018-Jul-19 15:11 318 4 gusting 6 25.6
2018-Jul-19 15:06 296 4 gusting 6 25.6
2018-Jul-19 15:01 304 4 gusting 8 26.1
2018-Jul-19 14:56 322 3 gusting 6 25.6
2018-Jul-19 14:51 321 3 gusting 6 26.1
2018-Jul-19 14:46 313 4 gusting 6 26.1
2018-Jul-19 14:41 318 4 gusting 6 26.1
2018-Jul-19 14:36 334 4 gusting 9 26.1
2018-Jul-19 14:31 334 4 gusting 6 26.1
2018-Jul-19 14:26 315 4 gusting 6 26.1
2018-Jul-19 14:21 296 3 gusting 7 25.6
2018-Jul-19 14:16 303 2 gusting 6 25.6
2018-Jul-19 14:11 301 3 gusting 6 26.1
2018-Jul-19 14:06 282 5 gusting 6 26.1
2018-Jul-19 14:01 291 5 gusting 11 26.1
2018-Jul-19 13:56 309 3 gusting 9 26.1
2018-Jul-19 13:51 312 3 gusting 8 26.1
2018-Jul-19 13:46 312 3 gusting 3 26.1
2018-Jul-19 13:41 316 3 gusting 11 26.1
2018-Jul-19 13:36 328 3 gusting 6 26.1
2018-Jul-19 13:31 330 4 gusting 5 26.1
2018-Jul-19 13:26 340 4 gusting 7 26.1
2018-Jul-19 13:21 345 3 gusting 6 26.1
2018-Jul-19 13:16 330 3 gusting 7 26.1
2018-Jul-19 13:11 337 2 gusting 5 26.1
2018-Jul-19 13:06 312 2 gusting 7 26.1
2018-Jul-19 13:01 306 2 gusting 5 26.1
2018-Jul-19 12:56 345 3 gusting 7 26.1
2018-Jul-19 12:51 343 3 gusting 5 26.1
2018-Jul-19 12:46 285 3 gusting 5 26.1
2018-Jul-19 12:41 176 3 gusting 7 26.1
2018-Jul-19 12:36 354 2 gusting 5 25.6
2018-Jul-19 12:31 333 2 gusting 3 25.6
2018-Jul-19 12:26 013 2 gusting 4 25.0
2018-Jul-19 12:21 037 2 gusting 6 23.9
2018-Jul-19 12:16 030 2 gusting 4 24.4
2018-Jul-19 12:11 021 2 gusting 5 24.4
2018-Jul-19 12:06 032 1 gusting 6 24.4
2018-Jul-19 12:01 24.4
2018-Jul-19 11:56 320 1 gusting 4 24.4
2018-Jul-19 11:51 337 2 gusting 4 23.9
2018-Jul-19 11:46 344 2 gusting 4 24.4
2018-Jul-19 11:41 320 1 gusting 7 24.4
2018-Jul-19 11:36 340 0 gusting 4 24.4
2018-Jul-19 11:31 001 2 gusting 1 23.9
2018-Jul-19 11:26 324 2 gusting 5 23.9
2018-Jul-19 11:21 334 1 gusting 6 24.4
2018-Jul-19 11:16 002 1 gusting 2 24.4
2018-Jul-19 11:11 355 2 gusting 3 23.9
2018-Jul-19 11:06 360 2 gusting 5 23.3
2018-Jul-19 11:01 009 2 gusting 4 23.3
2018-Jul-19 10:56 353 2 gusting 6 23.3
2018-Jul-19 10:51 345 1 gusting 6 23.9
2018-Jul-19 10:46 011 1 gusting 2 23.9
2018-Jul-19 10:41 037 1 gusting 2 23.9
2018-Jul-19 10:36 359 1 gusting 4 23.9
2018-Jul-19 10:31 333 2 gusting 4 23.9
2018-Jul-19 10:26 026 2 gusting 3 23.3
2018-Jul-19 10:21 048 1 gusting 6 23.3
2018-Jul-19 10:16 036 2 gusting 3 23.9
2018-Jul-19 10:11 336 2 gusting 3 23.9
2018-Jul-19 10:06 327 1 gusting 5 23.9
2018-Jul-19 10:01 343 1 gusting 5 23.3
2018-Jul-19 09:56 334 1 gusting 1 23.3
2018-Jul-19 09:51 326 2 gusting 3 23.9
2018-Jul-19 09:46 350 2 gusting 5 23.9
2018-Jul-19 09:41 005 2 gusting 4 23.9
2018-Jul-19 09:36 347 2 gusting 4 23.9
2018-Jul-19 09:31 341 3 gusting 7 23.3
2018-Jul-19 09:26 23.3
2018-Jul-19 09:21 348 2 gusting 5 23.3
2018-Jul-19 09:16 346 2 gusting 4 23.3
2018-Jul-19 09:11 349 2 gusting 6 23.3
2018-Jul-19 09:06 340 2 gusting 5 23.3
2018-Jul-19 09:01 344 3 gusting 5 23.3
2018-Jul-19 08:56 343 3 gusting 6 23.3
2018-Jul-19 08:51 336 2 gusting 6 23.3
2018-Jul-19 08:46 346 2 gusting 6 23.3
2018-Jul-19 08:41 334 2 gusting 6 22.8
2018-Jul-19 08:36 326 3 gusting 6 22.8
2018-Jul-19 08:31 338 3 gusting 6 22.8
2018-Jul-19 08:26 355 3 gusting 5 22.8
2018-Jul-19 08:21 009 4 gusting 6 22.8
2018-Jul-19 08:16 014 3 gusting 6 22.2
2018-Jul-19 08:11 006 3 gusting 7 22.2
2018-Jul-19 08:06 343 3 gusting 6 22.2
2018-Jul-19 08:01 343 3 gusting 6 22.2
2018-Jul-19 07:56 004 2 gusting 6 22.2
2018-Jul-19 07:51 352 2 gusting 5 22.2
2018-Jul-19 07:46 348 2 gusting 4 22.2
2018-Jul-19 07:41 004 2 gusting 4 21.7
2018-Jul-19 07:36 002 2 gusting 6 21.7
2018-Jul-19 07:31 002 2 gusting 6 21.7
2018-Jul-19 07:26 356 2 gusting 4 21.7
2018-Jul-19 07:21 329 2 gusting 6 21.7
2018-Jul-19 07:16 330 2 gusting 5 21.1
2018-Jul-19 07:11 355 2 gusting 4 21.1
2018-Jul-19 07:06 007 2 gusting 4 21.1
2018-Jul-19 07:01 005 2 gusting 5 21.1
2018-Jul-19 06:56 339 2 gusting 4 20.6
2018-Jul-19 06:51 337 1 gusting 5 20.6
2018-Jul-19 06:46 345 1 gusting 4 20.6
2018-Jul-19 06:41 347 1 gusting 2 20.0
2018-Jul-19 06:36 334 1 gusting 4 20.0
2018-Jul-19 06:31 328 1 gusting 3 20.0
2018-Jul-19 06:26 352 1 gusting 2 20.0
2018-Jul-19 06:21 012 1 gusting 3 19.4
2018-Jul-19 06:16 022 1 gusting 4 19.4
2018-Jul-19 06:11 358 0 gusting 2 19.4
2018-Jul-19 06:06 348 0 gusting 3 19.4
2018-Jul-19 06:01 004 0 gusting 1 18.9
2018-Jul-19 05:56 358 0 gusting 3 18.9
2018-Jul-19 05:51 339 0 gusting 2 18.9
2018-Jul-19 05:46 345 1 gusting 1 18.3
2018-Jul-19 05:41 007 0 gusting 3 18.3
2018-Jul-19 05:36 344 0 gusting 2 18.3
2018-Jul-19 05:31 338 0 gusting 2 18.3
2018-Jul-19 05:26 344 0 gusting 1 18.3
2018-Jul-19 05:21 343 0 gusting 2 17.8
2018-Jul-19 05:16 353 0 gusting 1 17.8
2018-Jul-19 05:11 326 0 gusting 2 17.8
2018-Jul-19 05:06 320 0 gusting 2 17.8
2018-Jul-19 05:01 351 0 gusting 1 17.8
2018-Jul-19 04:56 347 0 gusting 1 17.8
2018-Jul-19 04:51 326 17.2
2018-Jul-19 04:46 323 0 gusting 0 17.2
2018-Jul-19 04:41 338 0 gusting 1 17.2
2018-Jul-19 04:36 342 0 gusting 1 17.2
2018-Jul-19 04:31 343 1 gusting 1 17.2
2018-Jul-19 04:26 345 0 gusting 3 17.2
2018-Jul-19 04:21 327 0 gusting 1 17.2
2018-Jul-19 04:16 336 0 gusting 1 17.2
2018-Jul-19 04:11 351 0 gusting 1 16.7
2018-Jul-19 04:06 346 0 gusting 1 16.7
2018-Jul-19 04:01 349 16.7
2018-Jul-19 03:56 349 16.7
2018-Jul-19 03:51 336 16.7
2018-Jul-19 03:46 334 16.7
2018-Jul-19 03:41 345 16.7
2018-Jul-19 03:36 357 17.2
2018-Jul-19 03:31 358 16.7
2018-Jul-19 03:26 351 17.2
2018-Jul-19 03:21 359 0 gusting 1 17.2
2018-Jul-19 03:16 002 0 gusting 2 17.2
2018-Jul-19 03:11 358 0 gusting 1 17.2
2018-Jul-19 03:06 010 0 gusting 1 17.2
2018-Jul-19 03:01 17.2
2018-Jul-19 02:56 353 0 gusting 1 17.8
2018-Jul-19 02:51 349 0 gusting 2 17.2
2018-Jul-19 02:46 352 0 gusting 3 17.8
2018-Jul-19 02:41 003 0 gusting 1 17.8
2018-Jul-19 02:36 001 0 gusting 2 17.8
2018-Jul-19 02:31 346 0 gusting 2 17.8
2018-Jul-19 02:26 335 0 gusting 1 17.8
2018-Jul-19 02:21 341 0 gusting 2 17.8
2018-Jul-19 02:16 337 0 gusting 1 17.8
2018-Jul-19 02:11 353 0 gusting 1 17.8
2018-Jul-19 02:06 007 0 gusting 1 17.8
2018-Jul-19 02:01 006 0 gusting 1 17.8
2018-Jul-19 01:56 001 0 gusting 2 17.8
2018-Jul-19 01:51 346 0 gusting 2 17.8
2018-Jul-19 01:46 341 0 gusting 3 17.8
2018-Jul-19 01:41 334 0 gusting 2 17.8
2018-Jul-19 01:36 343 1 gusting 2 17.8
2018-Jul-19 01:31 004 1 gusting 2 17.8
2018-Jul-19 01:26 353 1 gusting 2 18.3
2018-Jul-19 01:21 344 0 gusting 2 18.3
2018-Jul-19 01:16 338 0 gusting 1 18.3
2018-Jul-19 01:11 331 1 gusting 2 18.3
2018-Jul-19 01:06 338 1 gusting 3 18.3
2018-Jul-19 01:01 330 1 gusting 1 18.3
2018-Jul-19 00:56 333 1 gusting 2 18.3
2018-Jul-19 00:51 001 1 gusting 3 18.3
2018-Jul-19 00:46 349 1 gusting 2 18.3
2018-Jul-19 00:41 322 1 gusting 2 18.3
2018-Jul-19 00:36 326 0 gusting 2 18.3
2018-Jul-19 00:31 002 0 gusting 1 18.3
2018-Jul-19 00:26 004 1 gusting 1 18.3
2018-Jul-19 00:21 340 1 gusting 2 18.3
2018-Jul-19 00:16 328 0 gusting 2 18.3
2018-Jul-19 00:11 328 0 gusting 2 18.3
2018-Jul-19 00:06 334 0 gusting 1 18.3
2018-Jul-19 00:01 350 0 gusting 1 18.9
2018-Jul-18 23:56 359 1 gusting 2 18.9
2018-Jul-18 23:51 357 1 gusting 1 18.9
2018-Jul-18 23:46 356 1 gusting 3 18.9
2018-Jul-18 23:41 004 1 gusting 2 18.3
2018-Jul-18 23:36 018 1 gusting 3 18.3
2018-Jul-18 23:31 013 1 gusting 2 18.9
2018-Jul-18 23:26 18.9
2018-Jul-18 23:21 001 1 gusting 2 18.3
2018-Jul-18 23:16 004 1 gusting 3 18.3
2018-Jul-18 23:11 004 1 gusting 3 18.3
2018-Jul-18 23:06 005 0 gusting 2 18.3
2018-Jul-18 23:01 353 0 gusting 2 18.3
2018-Jul-18 22:56 347 0 gusting 1 18.3
2018-Jul-18 22:51 349 0 gusting 0 18.3
2018-Jul-18 22:46 354 0 gusting 1 18.3
2018-Jul-18 22:41 349 18.3
2018-Jul-18 22:36 341 18.3
2018-Jul-18 22:31 339 0 gusting 0 18.3
2018-Jul-18 22:26 351 0 gusting 1 18.3
2018-Jul-18 22:21 358 0 gusting 1 18.3
2018-Jul-18 22:16 352 18.3
2018-Jul-18 22:11 354 18.9
2018-Jul-18 22:06 339 0 18.9
2018-Jul-18 22:01 344 0 gusting 1 18.9
2018-Jul-18 21:56 001 0 gusting 2 18.9
2018-Jul-18 21:51 016 0 gusting 3 18.9
2018-Jul-18 21:46 026 0 gusting 2 18.9
2018-Jul-18 21:41 007 0 18.9
2018-Jul-18 21:36 347 0 gusting 2 18.9
2018-Jul-18 21:31 355 0 gusting 1 18.9
2018-Jul-18 21:26 003 0 gusting 1 18.9
2018-Jul-18 21:21 352 0 gusting 1 19.4
2018-Jul-18 21:16 344 0 gusting 1 19.4
2018-Jul-18 21:11 353 0 gusting 2 19.4
2018-Jul-18 21:06 354 0 gusting 2 19.4
2018-Jul-18 21:01 347 0 gusting 1 19.4
2018-Jul-18 20:56 353 1 gusting 2 19.4
2018-Jul-18 20:51 345 1 gusting 3 19.4
2018-Jul-18 20:46 335 1 gusting 3 19.4
2018-Jul-18 20:41 345 1 gusting 4 19.4
2018-Jul-18 20:36 344 1 gusting 1 20.0
2018-Jul-18 20:31 330 1 gusting 3 20.0
2018-Jul-18 20:26 318 1 gusting 4 20.0
2018-Jul-18 20:21 321 2 gusting 2 20.0
2018-Jul-18 20:16 318 1 gusting 5 20.0
2018-Jul-18 20:11 316 1 gusting 3 20.6
2018-Jul-18 20:06 313 1 gusting 3 20.6
2018-Jul-18 20:01 326 1 gusting 3 20.6
2018-Jul-18 19:56 360 1 gusting 4 20.6
2018-Jul-18 19:51 354 1 gusting 3 20.6
2018-Jul-18 19:46 347 2 gusting 2 20.6
2018-Jul-18 19:41 005 2 gusting 5 20.6
2018-Jul-18 19:36 001 2 gusting 5 21.1
2018-Jul-18 19:31 004 2 gusting 4 21.1
2018-Jul-18 19:26 006 1 gusting 4 21.1
2018-Jul-18 19:21 349 1 gusting 2 21.1
2018-Jul-18 19:16 356 1 gusting 3 21.1
2018-Jul-18 19:11 358 1 gusting 4 21.1
2018-Jul-18 19:06 352 2 gusting 3 21.7
2018-Jul-18 19:01 337 2 gusting 3 21.7
2018-Jul-18 18:56 331 2 gusting 4 21.7
2018-Jul-18 18:51 339 2 gusting 4 21.7
2018-Jul-18 18:46 338 2 gusting 5 21.7
2018-Jul-18 18:41 351 2 gusting 4 21.7
2018-Jul-18 18:36 354 3 gusting 5 21.7
2018-Jul-18 18:31 327 3 gusting 6 22.2
2018-Jul-18 18:26 323 2 gusting 5 22.2
2018-Jul-18 18:21 331 2 gusting 6 22.2
2018-Jul-18 18:16 327 2 gusting 6 22.2
2018-Jul-18 18:11 334 2 gusting 5 22.2
2018-Jul-18 18:06 334 2 gusting 5 22.2
2018-Jul-18 18:01 322 3 gusting 5 22.2
2018-Jul-18 17:56 312 3 gusting 5 22.8
2018-Jul-18 17:51 318 3 gusting 6 22.8
2018-Jul-18 17:46 337 3 gusting 6 22.8
2018-Jul-18 17:41 342 4 gusting 6 22.8
2018-Jul-18 17:36 333 3 gusting 8 22.8
2018-Jul-18 17:31 338 3 gusting 7 23.3
2018-Jul-18 17:26 347 4 gusting 6 23.3
2018-Jul-18 17:21 335 4 gusting 6 23.3
2018-Jul-18 17:16 325 3 gusting 7 23.3
2018-Jul-18 17:11 318 3 gusting 6 23.3
2018-Jul-18 17:06 327 3 gusting 6 23.3
2018-Jul-18 17:01 333 4 gusting 6 23.3
2018-Jul-18 16:56 325 4 gusting 7 23.3
2018-Jul-18 16:51 329 3 gusting 8 23.3
2018-Jul-18 16:46 329 2 gusting 8 23.9
2018-Jul-18 16:41 323 2 gusting 5 23.9
2018-Jul-18 16:36 340 3 gusting 4 23.3
2018-Jul-18 16:31 347 3 gusting 8 23.9
2018-Jul-18 16:26 317 3 gusting 6 23.9
2018-Jul-18 16:21 311 4 gusting 7 23.3
2018-Jul-18 16:16 338 3 gusting 7 23.9
2018-Jul-18 16:11 354 4 gusting 9 23.9
2018-Jul-18 16:06 340 4 gusting 6 23.3
2018-Jul-18 16:01 313 3 gusting 8 23.3
2018-Jul-18 15:56 309 2 gusting 6 22.8
2018-Jul-18 15:51 325 2 gusting 5 22.8
2018-Jul-18 15:46 313 1 gusting 6 22.8
2018-Jul-18 15:41 290 2 gusting 3 22.8
2018-Jul-18 15:36 306 2 gusting 6 22.8
2018-Jul-18 15:31 330 2 gusting 6 22.8
2018-Jul-18 15:26 337 1 gusting 5 22.8
2018-Jul-18 15:21 308 2 gusting 5 22.8
2018-Jul-18 15:16 301 2 gusting 2 22.8
2018-Jul-18 15:11 319 2 gusting 5 22.8
2018-Jul-18 15:06 319 2 gusting 6 22.8
2018-Jul-18 15:01 299 2 gusting 4 22.8
2018-Jul-18 14:56 297 3 gusting 6 22.8
2018-Jul-18 14:51 318 3 gusting 6 22.8
2018-Jul-18 14:46 328 3 gusting 6 22.8
2018-Jul-18 14:41 319 2 gusting 5 23.3
2018-Jul-18 14:36 323 2 gusting 6 23.3
2018-Jul-18 14:31 327 2 gusting 6 23.3
2018-Jul-18 14:26 344 2 gusting 3 23.9
2018-Jul-18 14:21 001 2 gusting 4 23.9
2018-Jul-18 14:16 320 1 gusting 4 23.9
2018-Jul-18 14:11 340 1 gusting 5 23.9
2018-Jul-18 14:06 336 1 gusting 3 24.4
2018-Jul-18 14:01 347 1 gusting 4 24.4
2018-Jul-18 13:56 084 1 gusting 2 23.9
2018-Jul-18 13:51 200 1 gusting 3 23.3
2018-Jul-18 13:46 235 1 gusting 3 23.3
2018-Jul-18 13:41 237 1 gusting 5 23.3
2018-Jul-18 13:36 252 1 gusting 3 23.3
2018-Jul-18 13:31 315 1 gusting 3 23.3
2018-Jul-18 13:26 332 1 gusting 3 23.3
2018-Jul-18 13:21 292 1 gusting 5 23.3
2018-Jul-18 13:16 257 0 gusting 6 23.3
2018-Jul-18 13:11 247 1 gusting 2 23.3
2018-Jul-18 13:06 276 2 gusting 3 23.3
2018-Jul-18 13:01 308 3 gusting 5 23.3
2018-Jul-18 12:56 280 3 gusting 6 23.9
2018-Jul-18 12:51 279 3 gusting 5 23.9
2018-Jul-18 12:46 302 3 gusting 6 23.3
2018-Jul-18 12:41 297 3 gusting 7 23.9
2018-Jul-18 12:36 294 3 gusting 7 23.9
2018-Jul-18 12:31 292 3 gusting 6 24.4
2018-Jul-18 12:26 291 3 gusting 6 25.0
2018-Jul-18 12:21 278 2 gusting 6 24.4
2018-Jul-18 12:16 250 1 gusting 6 25.0
2018-Jul-18 12:11 161 1 gusting 2 25.6
2018-Jul-18 12:06 218 1 gusting 3 25.6
2018-Jul-18 12:01 231 1 gusting 5 25.6
2018-Jul-18 11:56 238 1 gusting 5 25.6
2018-Jul-18 11:51 236 1 gusting 3 25.6
2018-Jul-18 11:46 266 2 gusting 2 25.0
2018-Jul-18 11:41 263 2 gusting 4 25.0
2018-Jul-18 11:36 222 1 gusting 6 25.6
2018-Jul-18 11:31 150 2 gusting 5 25.0
2018-Jul-18 11:26 170 3 gusting 4 25.0
2018-Jul-18 11:21 212 2 gusting 6 25.0
2018-Jul-18 11:16 234 1 gusting 7 24.4
2018-Jul-18 11:11 236 1 gusting 2 24.4
2018-Jul-18 11:06 180 2 gusting 4 24.4
2018-Jul-18 11:01 175 1 gusting 6 24.4
2018-Jul-18 10:56 212 2 gusting 3 24.4
2018-Jul-18 10:51 214 2 gusting 5 24.4
2018-Jul-18 10:46 210 3 gusting 6 24.4
2018-Jul-18 10:41 213 2 gusting 5 24.4
2018-Jul-18 10:36 206 2 gusting 6 24.4
2018-Jul-18 10:31 189 2 gusting 6 24.4
2018-Jul-18 10:26 189 2 gusting 4 24.4
2018-Jul-18 10:21 201 2 gusting 5 24.4
2018-Jul-18 10:16 227 2 gusting 4 24.4
2018-Jul-18 10:11 205 2 gusting 5 23.9
2018-Jul-18 10:06 188 3 gusting 6 23.9
2018-Jul-18 10:01 187 2 gusting 5 23.9
2018-Jul-18 09:56 190 2 gusting 5 23.9
2018-Jul-18 09:51 215 2 gusting 6 23.9
2018-Jul-18 09:46 219 2 gusting 5 23.9
2018-Jul-18 09:41 210 2 gusting 5 23.9
2018-Jul-18 09:36 185 3 gusting 6 23.9
2018-Jul-18 09:31 175 3 gusting 5 23.3
2018-Jul-18 09:26 204 3 gusting 6 23.3
2018-Jul-18 09:21 204 3 gusting 8 23.3
2018-Jul-18 09:16 215 3 gusting 6 23.3
2018-Jul-18 09:11 217 3 gusting 6 22.8
2018-Jul-18 09:06 198 3 gusting 6 23.3
2018-Jul-18 09:01 194 3 gusting 4 22.8
2018-Jul-18 08:56 199 3 gusting 6 22.8
2018-Jul-18 08:51 216 3 gusting 6 22.8
2018-Jul-18 08:46 226 3 gusting 7 22.2
2018-Jul-18 08:41 221 3 gusting 6 22.2
2018-Jul-18 08:36 223 3 gusting 6 22.8
2018-Jul-18 08:31 229 3 gusting 6 22.2
2018-Jul-18 08:26 229 3 gusting 6 22.2
2018-Jul-18 08:21 219 2 gusting 6 22.2
2018-Jul-18 08:16 210 2 gusting 6 22.2
2018-Jul-18 08:11 203 2 gusting 4 22.2
2018-Jul-18 08:06 219 2 gusting 4 22.2
2018-Jul-18 08:01 230 2 gusting 6 21.7
2018-Jul-18 07:56 246 2 gusting 6 21.7
2018-Jul-18 07:51 259 2 gusting 6 21.7
2018-Jul-18 07:46 250 2 gusting 5 21.7
2018-Jul-18 07:41 237 2 gusting 4 21.1
2018-Jul-18 07:36 230 2 gusting 3 21.1
2018-Jul-18 07:31 235 2 gusting 4 20.6
2018-Jul-18 07:26 239 2 gusting 6 20.6
2018-Jul-18 07:21 232 2 gusting 4 20.6
2018-Jul-18 07:16 219 1 gusting 4 20.6
2018-Jul-18 07:11 215 1 gusting 3 20.0
2018-Jul-18 07:06 219 1 gusting 4 20.0
2018-Jul-18 07:01 222 2 gusting 3 20.0
2018-Jul-18 06:56 223 2 gusting 4 19.4
2018-Jul-18 06:51 221 1 gusting 4 19.4
2018-Jul-18 06:46 209 1 gusting 4 19.4
2018-Jul-18 06:41 209 1 gusting 3 19.4
2018-Jul-18 06:36 215 1 gusting 3 18.9
2018-Jul-18 06:31 203 1 gusting 3 18.9
2018-Jul-18 06:26 214 1 gusting 4 18.9
2018-Jul-18 06:21 223 1 gusting 3 18.3
2018-Jul-18 06:16 215 1 gusting 3 18.3
2018-Jul-18 06:11 213 1 gusting 3 18.3
2018-Jul-18 06:06 208 1 gusting 2 18.3
2018-Jul-18 06:01 203 0 gusting 2 18.3
2018-Jul-18 05:56 220 1 gusting 3 17.8
2018-Jul-18 05:51 212 1 gusting 2 17.8
2018-Jul-18 05:46 177 1 gusting 5 17.8
2018-Jul-18 05:41 190 1 gusting 2 17.2
2018-Jul-18 05:36 197 1 gusting 2 16.7
2018-Jul-18 05:31 207 0 gusting 3 16.7
2018-Jul-18 05:26 190 0 gusting 3 16.1
2018-Jul-18 05:21 119 0 gusting 2 15.6
2018-Jul-18 05:16 107 0 gusting 1 15.0
2018-Jul-18 05:11 106 15.0
2018-Jul-18 05:06 101 15.0
2018-Jul-18 05:01 101 14.4
2018-Jul-18 04:56 104 14.4
2018-Jul-18 04:51 102 14.4
2018-Jul-18 04:46 110 14.4
2018-Jul-18 04:41 115 14.4
2018-Jul-18 04:36 121 14.4
2018-Jul-18 04:31 134 14.4
2018-Jul-18 04:26 164 14.4
2018-Jul-18 04:21 172 14.4
2018-Jul-18 04:16 173 14.4
2018-Jul-18 04:11 178 13.9
2018-Jul-18 04:06 170 13.9
2018-Jul-18 04:01 165 13.9
2018-Jul-18 03:56 162 13.9
2018-Jul-18 03:51 154 13.9
2018-Jul-18 03:46 145 14.4
2018-Jul-18 03:41 147 14.4
2018-Jul-18 03:36 160 14.4
2018-Jul-18 03:31 164 14.4
2018-Jul-18 03:26 158 14.4
2018-Jul-18 03:21 151 14.4
2018-Jul-18 03:16 165 14.4
2018-Jul-18 03:11 166 14.4
2018-Jul-18 03:06 159 14.4
2018-Jul-18 03:01 151 14.4
2018-Jul-18 02:56 127 14.4
2018-Jul-18 02:51 117 14.4
2018-Jul-18 02:46 119 14.4
2018-Jul-18 02:41 104 14.4
2018-Jul-18 02:36 099 15.0
2018-Jul-18 02:31 125 15.0
2018-Jul-18 02:26 147 15.0
2018-Jul-18 02:21 164 15.0
2018-Jul-18 02:16 173 15.0
2018-Jul-18 02:11 178 15.0
2018-Jul-18 02:06 178 15.0
2018-Jul-18 02:01 159 15.0